This demonstration page uses our WeatherBlox Daily Observations layout. Learn more.

Left ArrowRight Arrow

39.29038, -76.61219

Hourly Observations for July 6, 2020

Temp ( °F °C ) Dew Point ( °F °C ) Humidity (%) Winds ( mph kmh ) Pressure ( in mb ) Visibility ( mi km ) Precip ( " mm )
12:54 am 00:54 Partly Cloudy 79 26.1 71 21.7 77 77 Calm 29.98 1015 10 16 0.00 0.00
1:54 am 01:54 Partly Cloudy 79 26.1 71 21.7 77 77 Calm 29.98 1015 10 16 0.00 0.00
2:54 am 02:54 Partly Cloudy 77 25 71 21.7 82 82 Calm 29.96 1015 10 16 0.00 0.00
3:54 am 03:54 Partly Cloudy 76 24.4 71 21.7 85 85 S 3 6 29.96 1015 10 16 0.00 0.00
4:54 am 04:54 Partly Cloudy 75 23.9 70 21.1 84 84 Calm 29.98 1015 10 16 0.00 0.00
5:54 am 05:54 Partly Cloudy 75 23.9 71 21.7 88 88 Calm 29.99 1016 9 14 0.00 0.00
6:54 am 06:54 Mostly Cloudy 77 25 72 22.2 85 85 Calm 30.01 1016 10 16 0.00 0.00
7:54 am 07:54 Mostly Cloudy 78 25.6 72 22.2 82 82 Calm 30.02 1017 10 16 0.00 0.00
8:54 am 08:54 Mostly Cloudy 79 26.1 73 22.8 82 82 Calm 30.03 1017 10 16 0.00 0.00
9:54 am 09:54 Mostly Cloudy 83 28.3 73 22.8 72 72 VRB 3 6 30.03 1017 10 16 0.00 0.00
10:54 am 10:54 Partly Cloudy 85 29.4 73 22.8 68 68 VRB 5 7 30.02 1017 10 16 0.00 0.00
11:54 am 11:54 Partly Cloudy 89 31.7 73 22.8 59 59 VRB 7 11 30.02 1017 10 16 0.00 0.00
12:54 pm 12:54 Partly Cloudy 91 32.8 72 22.2 54 54 SSW 8 13 30.02 1017 10 16 0.00 0.00
1:54 pm 13:54 Mostly Cloudy 93 33.9 73 22.8 52 52 S 7 11 30.00 1016 10 16 0.00 0.00
2:54 pm 14:54 Mostly Sunny 95 35 72 22.2 47 47 SW 8 13 29.97 1015 10 16 0.00 0.00
3:54 pm 15:54 Partly Cloudy 94 34.4 70 21.1 46 46 SSE 8 13 29.96 1015 10 16 0.00 0.00
4:54 pm 16:54 Partly Cloudy 94 34.4 70 21.1 46 46 S 10 17 29.95 1014 10 16 0.00 0.00
5:48 pm 17:48 Mostly Cloudy with Thunderstorms 93 34 72 22 49 49 S 8 13 29.93 1013 10 16 0.00 0.00
5:54 pm 17:54 Mostly Cloudy with Thunderstorms 91 32.8 72 22.2 54 54 SSE 8 13 29.93 1013 10 16 0.00 0.00
6:09 pm 18:09 Mostly Cloudy with Thunderstorms 84 28.9 75 23.9 74 74 S 13 20 29.94 1014 2 2 0.03 0.76
6:19 pm 18:19 Mostly Cloudy with Thunderstorms 81 27.2 74 23.3 79 79 SSW 16 26 29.95 1014 6 10 0.07 1.78
6:43 pm 18:43 Mostly Cloudy with Thunderstorms 73 22.8 68 20 84 84 S 13 20 29.97 1015 2 2 0.10 2.54
6:54 pm 18:54 Mostly Cloudy with Strong Thunderstorms 75 23.9 68 20 79 79 SSW 14 22 29.98 1015 0 0 0.48 12.19
7:03 pm 19:03 Cloudy with Rain 75 23.9 68 20 79 79 S 9 15 29.96 1015 6 10 0.13 3.30
7:54 pm 19:54 Cloudy 75 23.9 69 20.6 82 82 SSE 6 9 30.02 1017 10 16 0.13 3.30
8:18 pm 20:18 Windy with Storms Likely 76 24.4 70 21.1 82 82 ENE 20 31 30.04 1017 10 16 0.00 0.00
8:26 pm 20:26 Windy with Storms Likely 75 23.9 69 20.6 82 82 ENE 20 31 30.04 1017 7 11 0.00 0.00
8:30 pm 20:30 Windy with Storms Likely 75 23.9 69 20.6 82 82 ENE 20 31 30.03 1017 3 4 0.03 0.76
8:41 pm 20:41 Cloudy with Light Rain 73 22.8 69 20.6 87 87 E 18 30 30.02 1017 3 5 0.11 2.79
8:54 pm 20:54 Cloudy with Rain 73 22.8 69 20.6 87 87 E 20 31 30.03 1017 5 8 0.15 3.81
9:15 pm 21:15 Cloudy with Light Rain 73 22.8 70 21.1 90 90 E 25 41 30.02 1017 7 11 0.00 0.00
9:50 pm 21:50 Cloudy 73 23 70 21 89 89 NE 14 22 30.08 1019 10 16 0.01 0.25
9:54 pm 21:54 Cloudy 73 23 70 21 89 89 ENE 18 30 30.09 1019 10 16 0.01 0.25
10:01 pm 22:01 Cloudy 73 22.8 70 21.1 90 90 E 17 28 30.09 1019 10 16 0.00 0.00
10:27 pm 22:27 Cloudy with Rain 72 22.2 69 20.6 91 91 E 23 37 30.08 1019 3 5 0.05 1.27
10:44 pm 22:44 Cloudy with Rain 72 22.2 69 20.6 91 91 SE 10 17 30.07 1018 2 3 0.18 4.57
10:54 pm 22:54 Cloudy with Rain 71 21.7 69 20.6 94 94 E 9 15 30.09 1019 3 4 0.22 5.59
11:09 pm 23:09 Cloudy with Rain 71 21.7 69 20.6 94 94 E 9 15 30.08 1019 5 8 0.09 2.29
11:23 pm 23:23 Cloudy with Rain 71 21.7 69 20.6 94 94 ESE 7 11 30.09 1019 8 13 0.09 2.29
11:54 pm 23:54 Cloudy 72 22.2 69 20.6 91 91 E 10 17 30.11 1020 10 16 0.11 2.79

Powered by AerisWeather